Regional Weather Roundup
Issued by NWS Green Bay, WI

Home | Current Version | Previous Version | Graphics & Text | Print | Product List | Glossary Off
Versions: 1 2 3 4 5 6 7 8 9 10 11 12 13 14 15 16 17 18 19 20 21 22 23 24 25 26 27 28 29 30 31 32 33 34 35 36 37 38 39 40 41 42 43 44 45 46 47 48 49 50

000
ASUS43 KGRB 302000
RWRGRB

NORTH-CENTRAL AND NORTHEAST WISCONSIN REGIONAL WEATHER ROUNDUP
NATIONAL WEATHER SERVICE GREEN BAY WI
300 PM CDT SAT JUL 30 2016

WIZ005-009-010>012-018-019-302100-
NORTH CENTRAL WISCONSIN

CITY           SKY/WX    TMP DP  RH WIND       PRES   REMARKS
IRONWOOD       PTSUNNY   75  57  53 N3        30.03S
MANITOWISH WTR NOT AVBL
ARBOR VITAE    NOT AVBL
EAGLE RIVER    NOT AVBL
LAND O LAKES   NOT AVBL
RHINELANDER    MOSUNNY   76  52  43 SE3       30.09S
PHILLIPS       SUNNY     77  56  49 SE5       30.06S
ANTIGO         NOT AVBL
TOMAHAWK       NOT AVBL
MERRILL        NOT AVBL
$$

WIZ013-073-302100-
NORTHEAST WISCONSIN

CITY           SKY/WX    TMP DP  RH WIND       PRES   REMARKS
IRON MOUNTAIN  PTSUNNY   78  49  35 SE9       30.07S
MARINETTE      SUNNY    N/A N/A N/A E13       30.08S
$$

WIZ017-030-035>037-045-302100-
CENTRAL WISCONSIN

CITY           SKY/WX    TMP DP  RH WIND       PRES   REMARKS
MEDFORD        NOT AVBL
WAUSAU         CLOUDY    76  57  51 SE10      30.05S
MOSINEE        PTSUNNY   77  57  50 SE7       30.07S
MARSHFIELD     SUNNY     78  60  53 SE10      30.05S
WISC RAPIDS    SUNNY     75  58  55 SE8       30.06S
STEVENS POINT  NOT AVBL
WAUPACA        NOT AVBL
SHAWANO        NOT AVBL
CLINTONVILLE   NOT AVBL
WAUTOMA        MOSUNNY   77  59  53 E8        30.05S
$$

WIZ038-039-048-051-302100-
FOX VALLEY

CITY           SKY/WX    TMP DP  RH WIND       PRES   REMARKS
NWS GREEN BAY  SUNNY     76  57  51 N13G22    30.05S
APPLETON       PTSUNNY   77  50  38 E8        30.04S
OSHKOSH        SUNNY     77  56  48 E10       30.04S
FOND DU LAC    SUNNY     79  57  46 N13       30.04S
$$

WIZ022-050-052-302100-
EAST CENTRAL WISCONSIN

CITY           SKY/WX    TMP DP  RH WIND       PRES   REMARKS
EPHRAIM        FAIR      74  53  46 E10G16    30.07R
WASHINGTON ISL NOT AVBL
STURGEON BAY   SUNNY     76  55  48 E8        30.07S
MANITOWOC      NOT AVBL
SHEBOYGAN      SUNNY     73  58  59 NE12      30.05R
$$

LMZ563-521-522-541>543-302100-
LAKESHORE

STATION/POSITION TIME  TEMP    WIND        PRES    VSBY  WAVE
                       AIR SEA DIR/SP/G                  HT/PER
                 (UTC) (F)     (DEG/KT/KT) (MB)    (MI)  (FT/S)
SHEBOYGAN LKSHOR 1900   65      20/  8/  8 1017.5F
KEWAUNEE LKSHORE 1900   72      30/  7/ 11 1017.3F
ALGOMA MARINA    1913           50/ 16/ 18   N/A
NORTHPORT PIER   1900   71      70/  9/ 11 1018.3F
N MID LAKE BUOY  1850   70 70   20/ 10/ 12 1017.7F         1/ 3
SISTER BAY LKSHO 1921   81     110/ 10/ 18   N/A
CHAMBERS ISLAND  1900   72      30/ 10/ 14 1017.9F
MENOMINEE LKSHOR 1900   72      30/ 12/ 15 1017.2F
$$




USA.gov is the U.S. government's official web portal to all federal, state and local government web resources and services.